Location: Dunedin
(45.8670°S, 170.5000°E)
Time: 23:45:20
(UTC+13:00)

Cosmos 968 Rocket - Pass Details

Date: 24 January 2019
Orbit: 742 x 770 km, 74.0° (Epoch: 20 February)

Event Time Altitude Azimuth Distance (km) Brightness Sun altitude
Exits shadow 23:08:49 24° 35° (NE) 1,527 4.4 -15.4°
Maximum altitude 23:11:01 35° 79° (ENE) 1,232 4.2 -15.6°
Drops below altitude 10° 23:15:45 10° 142° (SE) 2,330 6.2 -16.1°
Sets 23:18:20 0° 151° (SSE) 3,268 7.1 -16.4°
